Lake Charles, LA

7:59 AM CDT on June 24, 2017 (GMT -0500)
Chennault International

Weather History for KCWF - June, 2014

Change the Weather History Date:

Tuesday, June 10, 2014

  Actual Average Record
Temperature  
Mean Temperature 79 °F -  
Max Temperature 89 °F 87 °F 93 °F (2003)
Min Temperature 69 °F 73 °F 67 °F (2017)
Cooling Degree Days 14    
Growing Degree Days 29 (Base 50)    
Moisture  
Dew Point 69 °F    
Average Humidity 74    
Maximum Humidity 94    
Minimum Humidity 33    
Precipitation  
Precipitation 0.10 in - - ()
Sea Level Pressure  
Sea Level Pressure 29.83 in    
Wind  
Wind Speed 12 mph (SW)    
Max Wind Speed 136 mph    
Max Gust Speed 29 mph    
Visibility 8 miles    
Events Rain , Thunderstorm    
Averages and records for this station are not official NWS values.
T = Trace of Precipitation, MM = Missing Value Source: NWS Daily Summary

Daily Weather History Graph

Daily Weather History Graph

Search for Another Location

Airport or City:

Trip Planner

Search our weather history database for the weather conditions in past years. The results will help you decide how hot, cold, wet, or windy it might be!

Date:

Astronomy

Jun. 10, 2014 Rise Set
Actual Time 6:10 AM CDT 8:13 PM CDT
Civil Twilight 5:42 AM CDT 8:41 PM CDT
Nautical Twilight 5:09 AM CDT 9:14 PM CDT
Astronomical Twilight 4:34 AM CDT 9:50 PM CDT
Moon 5:48 PM CDT (6/10) 4:05 AM CDT (6/10)
Length of Visible Light 14h 58m
Length of Day
14h 03m
Waxing Gibbous, 92% of the Moon is Illuminated
Jun 10
Waxing Gibbous
Jun 12
Full
Jun 19
Last Quarter
Jun 27
New
Jul 5
First Quarter

Hourly Weather History & Observations

Time (CDT) Temp. Heat Index Dew Point Humidity Pressure Visibility Wind Dir Wind Speed Gust Speed Precip Events Conditions
12:15 AM 75.4 °F - 72.5 °F 91% 29.84 in 10.0 mi SSE 4.6 mph - N/A   Clear
12:35 AM 76.3 °F - 73.4 °F 91% 29.84 in 10.0 mi SSE 4.6 mph - N/A   Scattered Clouds
12:55 AM 77.4 °F - 74.1 °F 90% 29.83 in 10.0 mi South 9.2 mph - N/A   Scattered Clouds
1:15 AM 78.8 °F - 74.7 °F 87% 29.83 in 7.0 mi South 9.2 mph - N/A Rain Light Rain
1:35 AM 78.8 °F - 74.8 °F 88% 29.82 in 10.0 mi South 8.1 mph - N/A   Scattered Clouds
1:55 AM 78.8 °F - 74.7 °F 87% 29.82 in 5.0 mi South 11.5 mph - 0.03 in Rain Light Rain
2:15 AM 78.8 °F - 74.8 °F 88% 29.81 in 10.0 mi South 10.4 mph - N/A   Scattered Clouds
2:35 AM 79.2 °F - 74.8 °F 87% 29.81 in 10.0 mi South 11.5 mph - N/A   Scattered Clouds
2:55 AM 79.3 °F - 74.5 °F 85% 29.80 in 10.0 mi South 12.7 mph - N/A   Scattered Clouds
3:15 AM 78.8 °F - 74.7 °F 87% 29.79 in 4.0 mi SSW 12.7 mph 20.7 mph 0.06 in Rain , Thunderstorm Heavy Thunderstorms and Rain
3:35 AM 78.8 °F - 75.0 °F 88% 29.80 in 7.0 mi South 11.5 mph 17.3 mph 0.07 in Rain , Thunderstorm Thunderstorms and Rain
4:15 AM 78.8 °F - 74.5 °F 87% 29.81 in 10.0 mi South 12.7 mph - N/A Thunderstorm Scattered Clouds
6:00 AM 80.6 °F 85.4 °F 73.4 °F 79% 29.81 in 6.0 mi SW 13.8 mph 26.5 mph N/A Thunderstorm Mostly Cloudy
6:45 AM 69.8 °F - 66.2 °F 88% 29.83 in 4.0 mi NW 11.5 mph - N/A Rain , Thunderstorm Thunderstorms and Rain
7:02 AM 71.6 °F - 68.0 °F 88% 29.84 in 2.0 mi West 24.2 mph 28.8 mph N/A Rain , Thunderstorm Thunderstorms and Rain
8:18 AM 71.6 °F - 69.8 °F 94% 29.87 in 4.0 mi SSW 13.8 mph 20.7 mph N/A Rain , Thunderstorm Light Thunderstorms and Rain
8:47 AM 71.6 °F - 69.8 °F 94% 29.87 in 2.0 mi SSW 13.8 mph 20.7 mph N/A Rain , Thunderstorm Light Thunderstorms and Rain
9:55 AM 71.6 °F - 69.8 °F 94% 29.87 in 5.0 mi South 135.8 mph - N/A Rain , Thunderstorm Light Thunderstorms and Rain
10:55 AM 78.8 °F - 69.8 °F 74% 29.87 in 10.0 mi SSW 12.7 mph - N/A   Scattered Clouds
11:45 AM 82.4 °F 87.2 °F 71.6 °F 70% 29.87 in 10.0 mi SSW 11.5 mph - N/A   Mostly Cloudy
1:52 PM 87.8 °F 90.4 °F 66.2 °F 49% 29.84 in 10.0 mi WSW 12.7 mph 23.0 mph N/A   Scattered Clouds
2:50 PM 87.8 °F 88.5 °F 62.6 °F 43% 29.83 in 10.0 mi WSW 18.4 mph 24.2 mph N/A   Scattered Clouds
4:50 PM 89.6 °F 88.9 °F 59.0 °F 36% 29.81 in 10.0 mi N/A N/A - N/A   Scattered Clouds
5:49 PM 89.6 °F 88.1 °F 57.2 °F 33% 29.79 in 10.0 mi West 12.7 mph 21.9 mph N/A   Scattered Clouds
6:52 PM 86.0 °F 86.1 °F 60.8 °F 43% 29.79 in 10.0 mi WNW 12.7 mph - N/A   Clear
7:52 PM 82.4 °F 83.4 °F 62.6 °F 51% 29.81 in 10.0 mi NW 12.7 mph 17.3 mph N/A   Scattered Clouds
8:52 PM 78.8 °F - 64.4 °F 61% 29.82 in 10.0 mi WNW 8.1 mph - N/A   Scattered Clouds
9:15 PM 77.9 °F - 64.4 °F 63% 29.83 in 10.0 mi WNW 5.8 mph - N/A   Clear
9:35 PM 77.4 °F - 64.8 °F 65% 29.84 in 10.0 mi WNW 5.8 mph - N/A   Clear
10:15 PM 76.1 °F - 65.3 °F 69% 29.85 in 10.0 mi WNW 6.9 mph - N/A   Clear
10:35 PM 75.9 °F - 65.3 °F 70% 29.85 in 10.0 mi WNW 6.9 mph - N/A   Clear
10:55 PM 75.6 °F - 64.8 °F 69% 29.86 in 10.0 mi WNW 5.8 mph - N/A   Clear
11:15 PM 74.8 °F - 65.1 °F 72% 29.86 in 10.0 mi WNW 5.8 mph - N/A   Clear
11:35 PM 74.7 °F - 64.9 °F 72% 29.87 in 10.0 mi WNW 8.1 mph - N/A   Clear
11:55 PM 74.3 °F - 65.3 °F 73% 29.87 in 10.0 mi WNW 5.8 mph - N/A   Clear